Location: *
(37.5724°S, 58.0067°E)
Time: 11:06:03
(UTC+00:00)

USA 229 DEB - Pass Details

Date: 07 December 2021
Orbit: 943 x 1269 km, 63.4° (Epoch: 14 January)

Event Time Altitude Azimuth Distance (km) Brightness Sun altitude
Rises 16:32:28 0° 318° (NW) 4,212 6.8 -12.5°
Reaches altitude 10° 16:35:21 10° 314° (NW) 3,235 6.3 -13.0°
Maximum altitude 16:43:07 62° 234° (SW) 1,361 4.5 -14.1°
Drops below altitude 10° 16:50:30 10° 154° (SSE) 3,081 6.3 -15.1°
Sets 16:53:12 0° 150° (SSE) 4,000 6.9 -15.5°
